PRSAU SBBE-SBPJ

Flight info

Callsign PRSAU
Flight time 1h 22m
Altitude 39000
Route LEMIS UZ26 ILNOM
Aircraft E190/M-SDE3GILORVW/S

Departure

Time 2026-05-08 17:27
Airport Val de Cans/Júlio Cezar Ribeiro International Airport (SBBE)

Arrival

Time 2026-05-08 18:49
Airport Brigadeiro Lysias Rodrigues Airport (SBPJ)
Time Latitude Longitude Altitude Speed Heading
2026-05-08 16:52 -1.38733 -48.47868 43 ft 0 kts 311°
2026-05-08 17:19 -1.38739 -48.47861 43 ft 2 kts 310°
2026-05-08 17:20 -1.38749 -48.47849 43 ft 2 kts 311°
2026-05-08 17:20 -1.38759 -48.47838 43 ft 2 kts 310°
2026-05-08 17:20 -1.38769 -48.47827 43 ft 2 kts 311°
2026-05-08 17:20 -1.38773 -48.47821 43 ft 0 kts 311°
2026-05-08 17:22 -1.38772 -48.47823 43 ft 0 kts 312°
2026-05-08 17:22 -1.38760 -48.47832 43 ft 3 kts 331°
2026-05-08 17:23 -1.38730 -48.47841 43 ft 5 kts 346°
2026-05-08 17:23 -1.38692 -48.47852 43 ft 6 kts 334°
2026-05-08 17:23 -1.38673 -48.47891 43 ft 7 kts 264°
2026-05-08 17:23 -1.38676 -48.47946 43 ft 8 kts 270°
2026-05-08 17:24 -1.38676 -48.48009 43 ft 9 kts 270°
2026-05-08 17:24 -1.38676 -48.48075 44 ft 9 kts 269°
2026-05-08 17:24 -1.38677 -48.48140 45 ft 9 kts 269°
2026-05-08 17:24 -1.38679 -48.48205 45 ft 10 kts 258°
2026-05-08 17:25 -1.38729 -48.48264 45 ft 12 kts 222°
2026-05-08 17:25 -1.38793 -48.48326 45 ft 12 kts 227°
2026-05-08 17:25 -1.38819 -48.48399 46 ft 10 kts 273°
2026-05-08 17:25 -1.38813 -48.48466 45 ft 7 kts 294°
2026-05-08 17:26 -1.38767 -48.48455 45 ft 9 kts 44°
2026-05-08 17:26 -1.38598 -48.48285 44 ft 78 kts 45°
2026-05-08 17:26 -1.38005 -48.47684 64 ft 156 kts 45°
2026-05-08 17:26 -1.37187 -48.46829 601 ft 186 kts 45°
2026-05-08 17:27 -1.36645 -48.45614 1272 ft 209 kts 89°
2026-05-08 17:27 -1.37184 -48.44275 2171 ft 223 kts 134°
2026-05-08 17:27 -1.38559 -48.43668 3320 ft 225 kts 177°
2026-05-08 17:27 -1.40062 -48.43905 3956 ft 225 kts 184°
2026-05-08 17:28 -1.41594 -48.43643 4781 ft 228 kts 157°
2026-05-08 17:28 -1.43060 -48.43187 5938 ft 222 kts 160°
2026-05-08 17:28 -1.44520 -48.42815 7023 ft 217 kts 163°
2026-05-08 17:28 -1.45980 -48.42487 7912 ft 218 kts 164°
2026-05-08 17:29 -1.47466 -48.42179 8707 ft 223 kts 165°
2026-05-08 17:29 -1.49006 -48.41874 9479 ft 229 kts 165°
2026-05-08 17:29 -1.50573 -48.41574 10235 ft 233 kts 166°
2026-05-08 17:29 -1.52176 -48.41271 10970 ft 238 kts 166°
2026-05-08 17:30 -1.53814 -48.40965 11713 ft 243 kts 166°
2026-05-08 17:30 -1.55487 -48.40653 12433 ft 247 kts 166°
2026-05-08 17:30 -1.57197 -48.40335 13133 ft 252 kts 167°
2026-05-08 17:30 -1.58913 -48.40017 13817 ft 256 kts 167°
2026-05-08 17:31 -1.60671 -48.39691 14517 ft 259 kts 167°
2026-05-08 17:31 -1.62455 -48.39360 15204 ft 262 kts 167°
2026-05-08 17:31 -1.64267 -48.39025 15883 ft 265 kts 167°
2026-05-08 17:31 -1.66072 -48.38690 16536 ft 269 kts 167°
2026-05-08 17:32 -1.67917 -48.38348 17168 ft 272 kts 167°
2026-05-08 17:32 -1.69802 -48.37999 17782 ft 276 kts 167°
2026-05-08 17:32 -1.71690 -48.37649 18400 ft 278 kts 167°
2026-05-08 17:32 -1.73611 -48.37293 19027 ft 280 kts 167°
2026-05-08 17:33 -1.75516 -48.36940 19639 ft 282 kts 167°
2026-05-08 17:33 -1.77454 -48.36580 20238 ft 284 kts 167°
2026-05-08 17:33 -1.79414 -48.36217 20825 ft 286 kts 167°
2026-05-08 17:33 -1.81357 -48.35857 21379 ft 288 kts 166°
2026-05-08 17:34 -1.83339 -48.35489 21913 ft 290 kts 166°
2026-05-08 17:34 -1.85340 -48.35118 22434 ft 293 kts 166°
2026-05-08 17:34 -1.87370 -48.34741 22951 ft 297 kts 166°
2026-05-08 17:34 -1.89405 -48.34364 23459 ft 300 kts 167°
2026-05-08 17:35 -1.91462 -48.33982 23984 ft 302 kts 167°
2026-05-08 17:35 -1.93535 -48.33598 24512 ft 304 kts 167°
2026-05-08 17:35 -1.95624 -48.33210 25030 ft 306 kts 168°
2026-05-08 17:35 -1.97724 -48.32821 25527 ft 308 kts 168°
2026-05-08 17:36 -1.99825 -48.32431 26001 ft 310 kts 168°
2026-05-08 17:36 -2.01968 -48.32034 26468 ft 313 kts 168°
2026-05-08 17:36 -2.04125 -48.31667 26918 ft 316 kts 172°
2026-05-08 17:36 -2.06326 -48.31385 27369 ft 319 kts 172°
2026-05-08 17:37 -2.08531 -48.31101 27799 ft 321 kts 173°
2026-05-08 17:37 -2.10779 -48.30812 28254 ft 323 kts 173°
2026-05-08 17:37 -2.12993 -48.30526 28692 ft 325 kts 173°
2026-05-08 17:37 -2.15244 -48.30236 29130 ft 327 kts 173°
2026-05-08 17:38 -2.17513 -48.29944 29556 ft 330 kts 173°
2026-05-08 17:38 -2.19827 -48.29646 29983 ft 332 kts 173°
2026-05-08 17:38 -2.22130 -48.29349 30394 ft 334 kts 173°
2026-05-08 17:38 -2.24434 -48.29052 30799 ft 337 kts 173°
2026-05-08 17:39 -2.26763 -48.28751 31186 ft 339 kts 173°
2026-05-08 17:39 -2.29136 -48.28445 31574 ft 342 kts 173°
2026-05-08 17:39 -2.31521 -48.28138 31949 ft 345 kts 173°
2026-05-08 17:39 -2.33911 -48.27830 32333 ft 347 kts 173°
2026-05-08 17:40 -2.36328 -48.27518 32711 ft 349 kts 173°
2026-05-08 17:40 -2.38759 -48.27205 33109 ft 351 kts 173°
2026-05-08 17:40 -2.41232 -48.26886 33507 ft 353 kts 173°
2026-05-08 17:40 -2.43703 -48.26567 33896 ft 355 kts 173°
2026-05-08 17:41 -2.46154 -48.26251 34282 ft 357 kts 173°
2026-05-08 17:41 -2.48648 -48.25929 34673 ft 359 kts 173°
2026-05-08 17:41 -2.51116 -48.25611 35057 ft 361 kts 173°
2026-05-08 17:41 -2.53630 -48.25286 35450 ft 362 kts 173°
2026-05-08 17:42 -2.56137 -48.24963 35833 ft 363 kts 173°
2026-05-08 17:42 -2.58652 -48.24639 36206 ft 365 kts 173°
2026-05-08 17:42 -2.61185 -48.24312 36555 ft 366 kts 173°
2026-05-08 17:42 -2.63714 -48.23986 36884 ft 369 kts 173°
2026-05-08 17:43 -2.66276 -48.23655 37201 ft 371 kts 173°
2026-05-08 17:43 -2.68827 -48.23326 37508 ft 373 kts 174°
2026-05-08 17:43 -2.71445 -48.22989 37811 ft 375 kts 174°
2026-05-08 17:43 -2.74034 -48.22654 38101 ft 378 kts 174°
2026-05-08 17:44 -2.76639 -48.22318 38406 ft 379 kts 174°
2026-05-08 17:44 -2.79282 -48.21977 38729 ft 381 kts 174°
2026-05-08 17:44 -2.81901 -48.21639 38863 ft 379 kts 174°
2026-05-08 17:44 -2.84537 -48.21299 38880 ft 381 kts 174°
2026-05-08 17:45 -2.89837 -48.21083 38892 ft 381 kts 189°
2026-05-08 17:45 -2.95087 -48.21833 38874 ft 380 kts 189°
2026-05-08 17:46 -3.00441 -48.22591 38888 ft 394 kts 189°
2026-05-08 17:46 -3.06004 -48.23377 38885 ft 411 kts 189°
2026-05-08 17:47 -3.11779 -48.24192 38877 ft 427 kts 189°
2026-05-08 17:47 -3.16799 -48.24902 38879 ft 441 kts 189°
2026-05-08 17:48 -3.24038 -48.25924 38873 ft 458 kts 189°
2026-05-08 17:48 -3.30450 -48.26830 38868 ft 470 kts 189°
2026-05-08 17:49 -3.36980 -48.27753 38867 ft 474 kts 189°
2026-05-08 17:49 -3.43486 -48.28672 38868 ft 472 kts 189°
2026-05-08 17:50 -3.50062 -48.29602 38867 ft 475 kts 189°
2026-05-08 17:50 -3.56556 -48.30520 38861 ft 472 kts 189°
2026-05-08 17:51 -3.63084 -48.31443 38862 ft 472 kts 189°
2026-05-08 17:51 -3.69584 -48.32362 38863 ft 471 kts 189°
2026-05-08 17:52 -3.76127 -48.33287 38859 ft 471 kts 189°
2026-05-08 17:53 -3.85879 -48.34667 38858 ft 471 kts 189°
2026-05-08 17:53 -3.92358 -48.35583 38858 ft 471 kts 189°
2026-05-08 17:54 -3.98887 -48.36507 38860 ft 471 kts 189°
2026-05-08 17:54 -4.05390 -48.37428 38862 ft 471 kts 189°
2026-05-08 17:55 -4.11887 -48.38347 38863 ft 470 kts 189°
2026-05-08 17:55 -4.18342 -48.39261 38864 ft 470 kts 189°
2026-05-08 17:56 -4.24851 -48.40183 38868 ft 470 kts 189°
2026-05-08 17:56 -4.31368 -48.41106 38872 ft 471 kts 189°
2026-05-08 17:57 -4.37845 -48.42023 38873 ft 472 kts 189°
2026-05-08 17:57 -4.44374 -48.42948 38878 ft 472 kts 189°
2026-05-08 17:58 -4.50932 -48.43687 38882 ft 473 kts 181°
2026-05-08 17:58 -4.57552 -48.43596 38886 ft 475 kts 181°
2026-05-08 17:59 -4.64136 -48.43506 38877 ft 474 kts 181°
2026-05-08 17:59 -4.70735 -48.43417 38876 ft 473 kts 181°
2026-05-08 18:00 -4.77345 -48.43328 38888 ft 475 kts 181°
2026-05-08 18:00 -4.87284 -48.43195 38902 ft 475 kts 181°
2026-05-08 18:01 -4.93920 -48.43105 38889 ft 476 kts 181°
2026-05-08 18:01 -5.00568 -48.43015 38890 ft 476 kts 181°
2026-05-08 18:02 -5.07180 -48.42926 38886 ft 474 kts 181°
2026-05-08 18:02 -5.13799 -48.42838 38885 ft 473 kts 181°
2026-05-08 18:03 -5.20373 -48.42750 38888 ft 473 kts 181°
2026-05-08 18:03 -5.26988 -48.42662 38886 ft 473 kts 181°
2026-05-08 18:04 -5.33574 -48.42574 38887 ft 473 kts 181°
2026-05-08 18:04 -5.40208 -48.42485 38886 ft 473 kts 181°
2026-05-08 18:05 -5.46786 -48.42397 38884 ft 473 kts 181°
2026-05-08 18:05 -5.53370 -48.42309 38884 ft 473 kts 181°
2026-05-08 18:06 -5.59985 -48.42221 38889 ft 472 kts 181°
2026-05-08 18:06 -5.66540 -48.42133 38888 ft 473 kts 181°
2026-05-08 18:07 -5.73121 -48.42046 38882 ft 473 kts 181°
2026-05-08 18:07 -5.79744 -48.41957 38878 ft 473 kts 181°
2026-05-08 18:08 -5.86311 -48.41869 38879 ft 472 kts 181°
2026-05-08 18:08 -5.92890 -48.41782 38879 ft 472 kts 181°
2026-05-08 18:09 -5.99508 -48.41694 38878 ft 473 kts 181°
2026-05-08 18:09 -6.06088 -48.41605 38879 ft 473 kts 181°
2026-05-08 18:10 -6.12706 -48.41517 38881 ft 473 kts 181°
2026-05-08 18:10 -6.19255 -48.41430 38882 ft 472 kts 181°
2026-05-08 18:11 -6.25878 -48.41341 38880 ft 472 kts 181°
2026-05-08 18:11 -6.32450 -48.41253 38882 ft 473 kts 181°
2026-05-08 18:12 -6.39046 -48.41165 38885 ft 474 kts 181°
2026-05-08 18:12 -6.45664 -48.41077 38885 ft 475 kts 181°
2026-05-08 18:13 -6.52289 -48.40988 38888 ft 475 kts 181°
2026-05-08 18:13 -6.58919 -48.40900 38887 ft 474 kts 181°
2026-05-08 18:14 -6.65530 -48.40811 38887 ft 475 kts 181°
2026-05-08 18:14 -6.72166 -48.40723 38888 ft 474 kts 181°
2026-05-08 18:15 -6.78774 -48.40634 38889 ft 475 kts 181°
2026-05-08 18:15 -6.85376 -48.40546 38887 ft 474 kts 181°
2026-05-08 18:16 -6.91988 -48.40458 38877 ft 475 kts 181°
2026-05-08 18:16 -6.98656 -48.40368 38868 ft 476 kts 181°
2026-05-08 18:17 -7.05314 -48.40279 38873 ft 477 kts 181°
2026-05-08 18:17 -7.11928 -48.40190 38878 ft 476 kts 181°
2026-05-08 18:18 -7.18583 -48.40101 38891 ft 476 kts 181°
2026-05-08 18:18 -7.25237 -48.40012 38899 ft 476 kts 181°
2026-05-08 18:19 -7.31863 -48.39923 38900 ft 476 kts 181°
2026-05-08 18:19 -7.38509 -48.39834 38898 ft 477 kts 181°
2026-05-08 18:20 -7.45157 -48.39745 38903 ft 477 kts 181°
2026-05-08 18:20 -7.51837 -48.39656 38906 ft 477 kts 181°
2026-05-08 18:21 -7.58471 -48.39566 38902 ft 478 kts 181°
2026-05-08 18:21 -7.65137 -48.39477 38898 ft 478 kts 181°
2026-05-08 18:22 -7.71815 -48.39388 38899 ft 482 kts 181°
2026-05-08 18:22 -7.78608 -48.39296 38897 ft 490 kts 181°
2026-05-08 18:23 -7.85471 -48.39204 38853 ft 496 kts 181°
2026-05-08 18:23 -7.88949 -48.39158 38285 ft 506 kts 181°
2026-05-08 18:23 -7.92502 -48.39110 37731 ft 511 kts 181°
2026-05-08 18:24 -7.96064 -48.39062 37171 ft 508 kts 181°
2026-05-08 18:24 -7.99570 -48.39014 36609 ft 502 kts 181°
2026-05-08 18:24 -8.03073 -48.38967 36053 ft 496 kts 181°
2026-05-08 18:24 -8.06497 -48.38921 35507 ft 492 kts 180°
2026-05-08 18:25 -8.09944 -48.38875 34958 ft 489 kts 180°
2026-05-08 18:25 -8.13327 -48.38830 34420 ft 486 kts 180°
2026-05-08 18:25 -8.16675 -48.38784 33890 ft 482 kts 180°
2026-05-08 18:25 -8.20029 -48.38738 33359 ft 480 kts 180°
2026-05-08 18:26 -8.23364 -48.38692 32830 ft 476 kts 180°
2026-05-08 18:26 -8.26687 -48.38646 32325 ft 472 kts 180°
2026-05-08 18:26 -8.29932 -48.38602 31805 ft 468 kts 179°
2026-05-08 18:26 -8.33185 -48.38557 31291 ft 463 kts 179°
2026-05-08 18:27 -8.36416 -48.38513 30774 ft 458 kts 179°
2026-05-08 18:27 -8.38512 -48.38484 30444 ft 455 kts 179°
2026-05-08 18:27 -8.42705 -48.38425 29780 ft 448 kts 179°
2026-05-08 18:27 -8.45845 -48.38379 29277 ft 444 kts 178°
2026-05-08 18:28 -8.48926 -48.38333 28789 ft 440 kts 178°
2026-05-08 18:28 -8.51951 -48.38288 28313 ft 437 kts 178°
2026-05-08 18:28 -8.55007 -48.38243 27827 ft 433 kts 178°
2026-05-08 18:28 -8.57990 -48.38199 27354 ft 429 kts 178°
2026-05-08 18:29 -8.60968 -48.38155 26882 ft 425 kts 178°
2026-05-08 18:29 -8.63947 -48.38129 26419 ft 422 kts 180°
2026-05-08 18:29 -8.66837 -48.38280 25974 ft 419 kts 181°
2026-05-08 18:29 -8.69766 -48.38435 25505 ft 416 kts 181°
2026-05-08 18:30 -8.72657 -48.38585 25045 ft 413 kts 180°
2026-05-08 18:30 -8.75502 -48.38731 24594 ft 409 kts 180°
2026-05-08 18:30 -8.78367 -48.38878 24135 ft 407 kts 180°
2026-05-08 18:30 -8.81165 -48.39022 23685 ft 403 kts 180°
2026-05-08 18:31 -8.83967 -48.39165 23235 ft 400 kts 180°
2026-05-08 18:31 -8.86735 -48.39307 22789 ft 397 kts 179°
2026-05-08 18:31 -8.89513 -48.39450 22338 ft 393 kts 179°
2026-05-08 18:31 -8.92251 -48.39590 21906 ft 392 kts 179°
2026-05-08 18:32 -8.94975 -48.39730 21476 ft 390 kts 179°
2026-05-08 18:32 -8.97686 -48.39869 21044 ft 388 kts 180°
2026-05-08 18:32 -9.00355 -48.40006 20622 ft 387 kts 180°
2026-05-08 18:32 -9.03075 -48.40145 20187 ft 385 kts 180°
2026-05-08 18:33 -9.05748 -48.40283 19763 ft 384 kts 180°
2026-05-08 18:33 -9.08420 -48.40420 19335 ft 382 kts 180°
2026-05-08 18:33 -9.11054 -48.40555 18918 ft 381 kts 180°
2026-05-08 18:33 -9.13718 -48.40692 18492 ft 380 kts 180°
2026-05-08 18:34 -9.16342 -48.40827 18070 ft 377 kts 181°
2026-05-08 18:34 -9.18970 -48.40962 17650 ft 375 kts 181°
2026-05-08 18:34 -9.21554 -48.41095 17242 ft 373 kts 181°
2026-05-08 18:34 -9.24161 -48.41228 16832 ft 371 kts 181°
2026-05-08 18:35 -9.26729 -48.41361 16421 ft 369 kts 181°
2026-05-08 18:35 -9.29311 -48.41494 16008 ft 366 kts 181°
2026-05-08 18:35 -9.31837 -48.41624 15604 ft 364 kts 181°
2026-05-08 18:35 -9.34371 -48.41754 15202 ft 361 kts 182°
2026-05-08 18:36 -9.36861 -48.41882 14803 ft 359 kts 181°
2026-05-08 18:36 -9.39369 -48.42011 14406 ft 356 kts 182°
2026-05-08 18:36 -9.41851 -48.42139 14009 ft 354 kts 182°
2026-05-08 18:36 -9.44293 -48.42265 13624 ft 351 kts 182°
2026-05-08 18:37 -9.46713 -48.42389 13238 ft 348 kts 182°
2026-05-08 18:37 -9.49155 -48.42515 12848 ft 346 kts 182°
2026-05-08 18:37 -9.51553 -48.42638 12459 ft 345 kts 182°
2026-05-08 18:37 -9.53956 -48.42762 12082 ft 343 kts 181°
2026-05-08 18:38 -9.56330 -48.42885 11703 ft 341 kts 181°
2026-05-08 18:38 -9.58697 -48.43006 11325 ft 335 kts 181°
2026-05-08 18:38 -9.60999 -48.43126 10954 ft 327 kts 181°
2026-05-08 18:38 -9.63228 -48.43240 10599 ft 318 kts 181°
2026-05-08 18:39 -9.65442 -48.43354 10254 ft 310 kts 181°
2026-05-08 18:39 -9.67564 -48.43464 9919 ft 303 kts 180°
2026-05-08 18:39 -9.69660 -48.43572 9586 ft 297 kts 180°
2026-05-08 18:39 -9.71705 -48.43677 9306 ft 294 kts 180°
2026-05-08 18:40 -9.73752 -48.43783 9004 ft 294 kts 180°
2026-05-08 18:40 -9.75828 -48.43890 8677 ft 294 kts 180°
2026-05-08 18:40 -9.77853 -48.43995 8353 ft 293 kts 180°
2026-05-08 18:40 -9.79904 -48.44101 8026 ft 291 kts 181°
2026-05-08 18:41 -9.81901 -48.44350 7919 ft 289 kts 185°
2026-05-08 18:41 -9.83892 -48.44637 7931 ft 289 kts 186°
2026-05-08 18:41 -9.85902 -48.44927 7936 ft 291 kts 185°
2026-05-08 18:41 -9.87925 -48.45219 7932 ft 291 kts 186°
2026-05-08 18:42 -9.89936 -48.45511 7937 ft 291 kts 186°
2026-05-08 18:42 -9.91944 -48.45801 7941 ft 291 kts 185°
2026-05-08 18:42 -9.93964 -48.46094 7810 ft 293 kts 186°
2026-05-08 18:42 -9.95989 -48.46387 7525 ft 291 kts 186°
2026-05-08 18:43 -9.98000 -48.46678 7209 ft 289 kts 185°
2026-05-08 18:43 -9.99999 -48.46968 6890 ft 286 kts 185°
2026-05-08 18:43 -10.01949 -48.47251 6579 ft 284 kts 185°
2026-05-08 18:43 -10.03933 -48.47538 6263 ft 283 kts 185°
2026-05-08 18:44 -10.05884 -48.47821 5948 ft 282 kts 185°
2026-05-08 18:44 -10.07822 -48.48101 5638 ft 281 kts 186°
2026-05-08 18:44 -10.09755 -48.48412 5323 ft 281 kts 190°
2026-05-08 18:44 -10.11666 -48.48872 5088 ft 280 kts 191°
2026-05-08 18:45 -10.13560 -48.49334 4791 ft 280 kts 191°
2026-05-08 18:45 -10.15454 -48.49797 4480 ft 279 kts 192°
2026-05-08 18:45 -10.17318 -48.50232 4143 ft 268 kts 184°
2026-05-08 18:45 -10.19040 -48.49942 3894 ft 242 kts 146°
2026-05-08 18:46 -10.20233 -48.48842 3568 ft 227 kts 127°
2026-05-08 18:46 -10.21184 -48.47597 3276 ft 217 kts 125°
2026-05-08 18:46 -10.22039 -48.46402 3012 ft 204 kts 123°
2026-05-08 18:46 -10.22841 -48.45241 2731 ft 194 kts 123°
2026-05-08 18:47 -10.23578 -48.44152 2525 ft 174 kts 123°
2026-05-08 18:47 -10.24233 -48.43174 2277 ft 168 kts 122°
2026-05-08 18:47 -10.24882 -48.42197 2027 ft 162 kts 123°
2026-05-08 18:47 -10.25477 -48.41297 1763 ft 146 kts 124°
2026-05-08 18:48 -10.26013 -48.40486 1570 ft 129 kts 124°
2026-05-08 18:48 -10.26499 -48.39749 1381 ft 129 kts 124°
2026-05-08 18:48 -10.26996 -48.38996 1259 ft 128 kts 124°
2026-05-08 18:48 -10.27489 -48.38247 1095 ft 128 kts 124°
2026-05-08 18:49 -10.27981 -48.37490 946 ft 127 kts 126°
2026-05-08 18:49 -10.28480 -48.36738 794 ft 129 kts 123°
2026-05-08 18:49 -10.28950 -48.36019 756 ft 107 kts 123°
2026-05-08 18:49 -10.29235 -48.35582 761 ft 42 kts 124°
2026-05-08 18:50 -10.29312 -48.35529 763 ft 11 kts 206°
2026-05-08 18:50 -10.29380 -48.35573 764 ft 11 kts 213°
2026-05-08 18:50 -10.29451 -48.35621 764 ft 12 kts 224°
2026-05-08 18:50 -10.29482 -48.35669 764 ft 7 kts 221°
2026-05-08 18:51 -10.29506 -48.35684 764 ft 3 kts 208°
2026-05-08 18:51 -10.29514 -48.35689 764 ft 0 kts 213°